Time,TemperatureF,DewpointF,PressureIn,WindDirection,WindDirectionDegrees,WindSpeedMPH,WindSpeedGustMPH,Humidity,HourlyPrecipIn,Conditions,Clouds,dailyrainin,SolarRadiationWatts/m^2,SoftwareType,DateUTC
2013-06-23 00:02:00,50.0,30.0,-100.00,ENE,78,0.0,3.0,46,0.00,,,0.00,0.000000,,2013-06-23 07:02:00,
2013-06-23 00:34:00,50.0,30.0,-100.00,ENE,78,0.0,3.0,46,0.00,,,0.00,0.000000,,2013-06-23 07:34:00,
2013-06-23 00:43:00,50.0,30.0,-100.00,ENE,78,0.0,3.0,46,0.00,,,0.00,0.000000,,2013-06-23 07:43:00,
2013-06-23 00:53:00,50.0,30.0,-100.00,ENE,78,0.0,3.0,46,0.00,,,0.00,0.000000,,2013-06-23 07:53:00,
2013-06-23 01:02:00,49.0,29.0,-100.00,ENE,75,0.0,0.0,46,0.00,,,0.00,0.000000,,2013-06-23 08:02:00,
2013-06-23 01:34:00,49.0,29.0,-100.00,ENE,75,0.0,0.0,46,0.00,,,0.00,0.000000,,2013-06-23 08:34:00,
2013-06-23 01:43:00,49.0,29.0,-100.00,ENE,75,0.0,0.0,46,0.00,,,0.00,0.000000,,2013-06-23 08:43:00,
2013-06-23 01:53:00,49.0,29.0,-100.00,ENE,75,0.0,0.0,46,0.00,,,0.00,0.000000,,2013-06-23 08:53:00,
2013-06-23 02:43:00,46.0,27.0,-100.00,ENE,73,0.0,3.0,48,0.00,,,0.00,0.000000,,2013-06-23 09:43:00,
2013-06-23 02:53:00,46.0,27.0,-100.00,ENE,73,0.0,3.0,48,0.00,,,0.00,0.000000,,2013-06-23 09:53:00,
2013-06-23 04:53:00,46.0,28.0,-100.00,East,94,0.0,4.0,50,-99.99,,,0.00,0.000000,,2013-06-23 11:53:00,
2013-06-23 05:43:00,46.0,28.0,-100.00,East,100,0.0,4.0,50,-99.99,,,0.00,0.000000,,2013-06-23 12:43:00,
2013-06-23 07:34:00,47.0,26.0,-100.00,East,89,0.0,4.0,43,-99.99,,,0.00,26.000000,,2013-06-23 14:34:00,
2013-06-23 07:44:00,47.0,26.0,-100.00,East,89,0.0,4.0,43,-99.99,,,0.00,26.000000,,2013-06-23 14:44:00,
2013-06-23 07:52:00,47.0,26.0,-100.00,East,89,0.0,4.0,43,-99.99,,,0.00,26.000000,,2013-06-23 14:52:00,
2013-06-23 08:02:00,54.0,33.0,-100.00,East,97,0.0,0.0,44,-99.99,,,0.00,156.000000,,2013-06-23 15:02:00,
2013-06-23 08:35:00,54.0,33.0,-100.00,East,97,0.0,0.0,44,-99.99,,,0.00,156.000000,,2013-06-23 15:35:00,
2013-06-23 08:43:00,54.0,33.0,-100.00,East,97,0.0,0.0,44,-99.99,,,0.00,156.000000,,2013-06-23 15:43:00,
2013-06-23 08:52:00,54.0,33.0,-100.00,East,97,0.0,0.0,44,-99.99,,,0.00,156.000000,,2013-06-23 15:52:00,
2013-06-23 09:02:00,61.0,36.0,-100.00,SE,146,0.0,0.0,40,-99.99,,,0.00,346.000000,,2013-06-23 16:02:00,
2013-06-23 09:36:00,61.0,36.0,-100.00,SE,146,0.0,0.0,40,-99.99,,,0.00,346.000000,,2013-06-23 16:36:00,
2013-06-23 09:43:00,61.0,36.0,-100.00,SE,146,0.0,0.0,40,-99.99,,,0.00,346.000000,,2013-06-23 16:43:00,
2013-06-23 09:53:00,61.0,36.0,-100.00,SE,146,0.0,0.0,40,-99.99,,,0.00,346.000000,,2013-06-23 16:53:00,
2013-06-23 10:22:00,68.0,32.0,-100.00,NNW,330,1.0,5.0,26,0.00,,,0.00,444.000000,,2013-06-23 17:22:00,
2013-06-23 10:33:00,68.0,32.0,-100.00,NNW,330,1.0,5.0,26,0.00,,,0.00,444.000000,,2013-06-23 17:33:00,
2013-06-23 10:43:00,68.0,32.0,-100.00,NNW,330,1.0,5.0,26,0.00,,,0.00,444.000000,,2013-06-23 17:43:00,
2013-06-23 10:53:00,68.0,32.0,-100.00,NNW,330,1.0,5.0,26,0.00,,,0.00,444.000000,,2013-06-23 17:53:00,
2013-06-23 11:01:00,68.0,32.0,-100.00,NNW,330,1.0,5.0,26,0.00,,,0.00,444.000000,,2013-06-23 18:01:00,
2013-06-23 11:34:00,69.0,31.0,-100.00,South,187,5.0,12.0,24,0.00,,,0.00,644.000000,,2013-06-23 18:34:00,
2013-06-23 11:43:00,69.0,31.0,-100.00,South,187,5.0,12.0,24,0.00,,,0.00,644.000000,,2013-06-23 18:43:00,
2013-06-23 11:53:00,69.0,31.0,-100.00,South,187,5.0,12.0,24,0.00,,,0.00,644.000000,,2013-06-23 18:53:00,
2013-06-23 12:01:00,69.0,31.0,-100.00,South,187,5.0,12.0,24,0.00,,,0.00,644.000000,,2013-06-23 19:01:00,
2013-06-23 12:32:00,68.0,32.0,-100.00,SW,226,5.0,15.0,26,0.00,,,0.00,831.000000,,2013-06-23 19:32:00,
2013-06-23 12:43:00,68.0,32.0,-100.00,SW,226,5.0,15.0,26,0.00,,,0.00,831.000000,,2013-06-23 19:43:00,
2013-06-23 12:53:00,68.0,32.0,-100.00,SW,226,5.0,15.0,26,0.00,,,0.00,831.000000,,2013-06-23 19:53:00,
2013-06-23 13:01:00,68.0,32.0,-100.00,SW,226,5.0,15.0,26,0.00,,,0.00,831.000000,,2013-06-23 20:01:00,
2013-06-23 13:34:00,66.0,36.0,-100.00,WSW,257,2.0,13.0,33,0.00,,,0.00,345.000000,,2013-06-23 20:34:00,
2013-06-23 13:42:00,66.0,36.0,-100.00,WSW,257,2.0,13.0,33,0.00,,,0.00,345.000000,,2013-06-23 20:42:00,
2013-06-23 13:53:00,66.0,36.0,-100.00,WSW,257,2.0,13.0,33,0.00,,,0.00,345.000000,,2013-06-23 20:53:00,
2013-06-23 14:01:00,66.0,36.0,-100.00,WSW,257,2.0,13.0,33,0.00,,,0.00,345.000000,,2013-06-23 21:01:00,
2013-06-23 14:22:00,60.0,34.0,-100.00,ENE,71,0.0,11.0,37,0.00,,,0.00,284.000000,,2013-06-23 21:22:00,
2013-06-23 14:34:00,60.0,34.0,-100.00,ENE,71,0.0,11.0,37,0.00,,,0.00,284.000000,,2013-06-23 21:34:00,
2013-06-23 14:52:00,60.0,34.0,-100.00,ENE,71,0.0,11.0,37,0.00,,,0.00,284.000000,,2013-06-23 21:52:00,
2013-06-23 15:01:00,60.0,34.0,-100.00,ENE,71,0.0,11.0,37,0.00,,,0.00,284.000000,,2013-06-23 22:01:00,
2013-06-23 15:22:00,65.0,37.0,-100.00,SSE,147,0.0,5.0,35,0.00,,,0.00,422.000000,,2013-06-23 22:22:00,
2013-06-23 15:32:00,65.0,37.0,-100.00,SSE,147,0.0,5.0,35,0.00,,,0.00,422.000000,,2013-06-23 22:32:00,
2013-06-23 15:43:00,65.0,37.0,-100.00,SSE,147,0.0,5.0,35,0.00,,,0.00,422.000000,,2013-06-23 22:43:00,
2013-06-23 15:53:00,65.0,37.0,-100.00,SSE,147,0.0,5.0,35,0.00,,,0.00,422.000000,,2013-06-23 22:53:00,
2013-06-23 16:01:00,65.0,37.0,-100.00,SSE,147,0.0,5.0,35,0.00,,,0.00,422.000000,,2013-06-23 23:01:00,
2013-06-23 17:52:00,68.0,35.0,-100.00,SW,217,3.0,12.0,29,0.00,,,0.00,539.000000,,2013-06-24 00:52:00,
2013-06-23 18:32:00,65.0,34.0,-100.00,WSW,244,0.0,13.0,32,0.00,,,0.00,271.000000,,2013-06-24 01:32:00,
2013-06-23 18:42:00,65.0,34.0,-100.00,WSW,244,0.0,13.0,32,0.00,,,0.00,271.000000,,2013-06-24 01:42:00,
2013-06-23 18:53:00,65.0,34.0,-100.00,WSW,244,0.0,13.0,32,0.00,,,0.00,271.000000,,2013-06-24 01:53:00,
2013-06-23 19:33:00,61.0,38.0,-100.00,ENE,69,0.0,9.0,43,0.00,,,0.00,171.000000,,2013-06-24 02:33:00,
2013-06-23 19:42:00,61.0,38.0,-100.00,ENE,69,0.0,9.0,43,0.00,,,0.00,171.000000,,2013-06-24 02:42:00,
2013-06-23 19:53:00,61.0,38.0,-100.00,ENE,69,0.0,9.0,43,0.00,,,0.00,171.000000,,2013-06-24 02:53:00,
2013-06-23 20:01:00,61.0,38.0,-100.00,ENE,69,0.0,9.0,43,0.00,,,0.00,171.000000,,2013-06-24 03:01:00,
2013-06-23 20:33:00,55.0,41.0,-100.00,North,349,0.0,10.0,60,0.00,,,0.00,46.000000,,2013-06-24 03:33:00,
2013-06-23 20:43:00,55.0,41.0,-100.00,North,349,0.0,10.0,60,0.00,,,0.00,46.000000,,2013-06-24 03:43:00,
2013-06-23 20:53:00,55.0,41.0,-100.00,North,349,0.0,10.0,60,0.00,,,0.00,46.000000,,2013-06-24 03:53:00,
2013-06-23 21:01:00,55.0,41.0,-100.00,North,349,0.0,10.0,60,0.00,,,0.00,46.000000,,2013-06-24 04:01:00,
2013-06-23 21:02:00,51.0,41.0,-100.00,North,352,0.0,2.0,69,0.00,,,0.00,5.000000,,2013-06-24 04:02:00,
2013-06-23 21:22:00,51.0,41.0,-100.00,North,352,0.0,2.0,69,0.00,,,0.00,5.000000,,2013-06-24 04:22:00,
2013-06-23 21:33:00,51.0,41.0,-100.00,North,352,0.0,2.0,69,0.00,,,0.00,5.000000,,2013-06-24 04:33:00,
2013-06-23 21:43:00,51.0,41.0,-100.00,North,352,0.0,2.0,69,0.00,,,0.00,5.000000,,2013-06-24 04:43:00,
2013-06-23 21:53:00,51.0,41.0,-100.00,North,352,0.0,2.0,69,0.00,,,0.00,5.000000,,2013-06-24 04:53:00,
2013-06-23 22:02:00,48.0,46.0,-100.00,ESE,107,0.0,4.0,92,0.00,,,0.00,0.000000,,2013-06-24 05:02:00,
2013-06-23 22:22:00,48.0,46.0,-100.00,ESE,107,0.0,4.0,92,0.00,,,0.00,0.000000,,2013-06-24 05:22:00,
2013-06-23 22:38:00,48.0,46.0,-100.00,ESE,107,0.0,4.0,92,0.00,,,0.00,0.000000,,2013-06-24 05:38:00,
2013-06-23 22:46:00,48.0,46.0,-100.00,ESE,107,0.0,4.0,92,0.00,,,0.00,0.000000,,2013-06-24 05:46:00,
2013-06-23 22:53:00,48.0,46.0,-100.00,ESE,107,0.0,4.0,92,0.00,,,0.00,0.000000,,2013-06-24 05:53:00,
2013-06-23 23:02:00,50.0,45.0,-100.00,ENE,58,0.0,0.0,82,0.00,,,0.00,0.000000,,2013-06-24 06:02:00,
2013-06-23 23:45:00,50.0,45.0,-100.00,ENE,58,0.0,0.0,82,0.00,,,0.00,0.000000,,2013-06-24 06:45:00,
2013-06-23 23:54:00,50.0,45.0,-100.00,ENE,58,0.0,0.0,82,0.00,,,0.00,0.000000,,2013-06-24 06:54:00,